• In Czech Republic
  • List of Countries
  • For 7 days
  • Water Temperature
  • Satellite Maps
  • Weather Map
  • Weather Widgets
  • user-avatar
    Login

    Hourly Weather Trowbridge

    Today, 21 October, Saturday

    Time Temperature Precipitation Wind Pressure Humidity
    00:00 +15°C° 0 mm 7 mps 746 mmHg 90%
    01:00 +13°C° 0.1 mm 8 mps 746 mmHg 89%
    02:00 +13°C° 0.1 mm 8 mps 746 mmHg 87%
    03:00 +12°C° 0.1 mm 8 mps 746 mmHg 85%
    04:00 +12°C° 0 mm 8 mps 746 mmHg 83%
    05:00 +11°C° 0 mm 8 mps 746 mmHg 81%
    06:00 +10°C° 0 mm 6 mps 746 mmHg 84%
    07:00 +11°C° 0.1 mm 8 mps 746 mmHg 80%
    08:00 +11°C° 0.1 mm 10 mps 746 mmHg 76%
    09:00 +12°C° 0.1 mm 11 mps 746 mmHg 72%
    10:00 +12°C° 0.1 mm 12 mps 746 mmHg 69%
    11:00 +13°C° 0.1 mm 12 mps 746 mmHg 65%
    12:00 +13°C° 0.1 mm 13 mps 746 mmHg 62%
    13:00 +13°C° 0.2 mm 13 mps 746 mmHg 65%
    14:00 +12°C° 0.2 mm 13 mps 745 mmHg 68%
    15:00 +12°C° 0.2 mm 13 mps 745 mmHg 71%
    16:00 +10°C° 0.4 mm 12 mps 746 mmHg 74%
    17:00 +11°C° 0.4 mm 11 mps 746 mmHg 78%
    18:00 +11°C° 0.4 mm 10 mps 747 mmHg 81%
    19:00 +11°C° 0.2 mm 10 mps 748 mmHg 81%
    20:00 +11°C° 0.2 mm 10 mps 748 mmHg 81%
    21:00 +11°C° 0.2 mm 9 mps 749 mmHg 82%
    22:00 +10°C° 0.1 mm 9 mps 750 mmHg 80%
    23:00 +9°C° 0.1 mm 8 mps 751 mmHg 79%

    Tomorrow, 22 October, Sunday

    Time Temperature Precipitation Wind Pressure Humidity
    00:00 +9°C° 0.1 mm 8 mps 751 mmHg 78%
    01:00 +9°C° 0 mm 8 mps 752 mmHg 78%
    02:00 +7°C° 0 mm 8 mps 752 mmHg 77%
    03:00 +7°C° 0 mm 8 mps 753 mmHg 77%
    04:00 +7°C° 0 mm 8 mps 753 mmHg 76%
    05:00 +7°C° 0 mm 9 mps 753 mmHg 74%
    06:00 +8°C° 0 mm 9 mps 754 mmHg 73%
    07:00 +8°C° 0 mm 9 mps 754 mmHg 71%
    08:00 +8°C° 0 mm 9 mps 755 mmHg 69%
    09:00 +8°C° 0 mm 9 mps 756 mmHg 67%
    10:00 +10°C° 0 mm 9 mps 756 mmHg 65%
    11:00 +11°C° 0 mm 9 mps 757 mmHg 64%
    12:00 +11°C° 0 mm 9 mps 757 mmHg 62%
    13:00 +11°C° 0.1 mm 9 mps 758 mmHg 65%
    14:00 +11°C° 0.1 mm 8 mps 758 mmHg 67%
    15:00 +11°C° 0.1 mm 8 mps 758 mmHg 70%
    16:00 +11°C° 0.1 mm 7 mps 759 mmHg 74%
    17:00 +10°C° 0.1 mm 6 mps 759 mmHg 78%
    18:00 +9°C° 0.1 mm 5 mps 759 mmHg 81%
    19:00 +9°C° 0 mm 5 mps 760 mmHg 83%
    20:00 +9°C° 0 mm 5 mps 760 mmHg 84%
    21:00 +10°C° 0 mm 4 mps 760 mmHg 85%
    22:00 +10°C° 0 mm 4 mps 760 mmHg 87%
    23:00 +10°C° 0 mm 4 mps 760 mmHg 89%

    Day after tomorrow, 23 October, Monday

    Time Temperature Precipitation Wind Pressure Humidity
    00:00 +8°C° 0 mm 4 mps 760 mmHg 90%
    01:00 +10°C° 0.2 mm 4 mps 760 mmHg 91%
    02:00 +11°C° 0.2 mm 4 mps 760 mmHg 91%
    03:00 +10°C° 0.2 mm 5 mps 760 mmHg 91%
    04:00 +12°C° 0.6 mm 5 mps 759 mmHg 91%
    05:00 +12°C° 0.6 mm 5 mps 759 mmHg 92%
    06:00 +12°C° 0.6 mm 5 mps 759 mmHg 93%
    07:00 +13°C° 0.2 mm 5 mps 759 mmHg 93%
    08:00 +13°C° 0.2 mm 5 mps 759 mmHg 93%
    09:00 +14°C° 0.2 mm 6 mps 759 mmHg 93%
    10:00 +14°C° 0.1 mm 6 mps 759 mmHg 91%
    11:00 +15°C° 0.1 mm 6 mps 759 mmHg 90%
    12:00 +16°C° 0.1 mm 6 mps 759 mmHg 88%
    13:00 +16°C° 0 mm 6 mps 759 mmHg 88%
    14:00 +16°C° 0 mm 5 mps 759 mmHg 89%
    15:00 +17°C° 0 mm 4 mps 759 mmHg 89%
    16:00 +17°C° 0 mm 4 mps 759 mmHg 92%
    17:00 +16°C° 0 mm 3 mps 760 mmHg 94%
    18:00 +16°C° 0 mm 3 mps 760 mmHg 96%
    19:00 +16°C° 0 mm 3 mps 760 mmHg 96%
    20:00 +16°C° 0 mm 3 mps 760 mmHg 97%
    21:00 +16°C° 0 mm 3 mps 760 mmHg 97%
    22:00 +15°C° 0 mm 4 mps 760 mmHg 97%
    23:00 +15°C° 0 mm 4 mps 760 mmHg 97%

    24 October, Tuesday

    Time Temperature Precipitation Wind Pressure Humidity
    00:00 +15°C° 0 mm 4 mps 760 mmHg 96%
    01:00 +15°C° 0.1 mm 4 mps 760 mmHg 96%
    02:00 +17°C° 0.1 mm 4 mps 760 mmHg 96%
    03:00 +16°C° 0.1 mm 5 mps 760 mmHg 96%
    04:00 +16°C° 0.1 mm 5 mps 760 mmHg 96%
    05:00 +16°C° 0.1 mm 5 mps 760 mmHg 96%
    06:00 +17°C° 0.1 mm 4 mps 760 mmHg 96%
    07:00 +16°C° 0 mm 5 mps 760 mmHg 94%
    08:00 +16°C° 0 mm 5 mps 761 mmHg 93%
    09:00 +17°C° 0 mm 5 mps 761 mmHg 92%
    10:00 +17°C° 0 mm 5 mps 761 mmHg 91%
    11:00 +17°C° 0 mm 6 mps 761 mmHg 89%
    12:00 +17°C° 0 mm 6 mps 761 mmHg 88%
    13:00 +17°C° 0 mm 6 mps 761 mmHg 87%
    14:00 +17°C° 0 mm 6 mps 761 mmHg 87%
    15:00 +17°C° 0 mm 6 mps 761 mmHg 86%
    16:00 +16°C° 0 mm 6 mps 761 mmHg 87%
    17:00 +16°C° 0 mm 6 mps 761 mmHg 89%
    18:00 +15°C° 0 mm 5 mps 761 mmHg 90%
    19:00 +15°C° 0 mm 5 mps 761 mmHg 90%
    20:00 +14°C° 0 mm 5 mps 761 mmHg 91%
    21:00 +14°C° 0 mm 5 mps 761 mmHg 91%
    22:00 +14°C° 0 mm 5 mps 761 mmHg 92%
    23:00 +13°C° 0 mm 4 mps 761 mmHg 93%

    25 October, Wednesday

    Time Temperature Precipitation Wind Pressure Humidity
    00:00 +13°C° 0 mm 4 mps 762 mmHg 94%
    01:00 +13°C° 0 mm 4 mps 761 mmHg 95%
    02:00 +13°C° 0 mm 4 mps 761 mmHg 95%
    03:00 +13°C° 0 mm 4 mps 761 mmHg 96%
    04:00 +13°C° 0 mm 4 mps 761 mmHg 96%
    05:00 +13°C° 0 mm 4 mps 761 mmHg 96%
    06:00 +13°C° 0 mm 3 mps 761 mmHg 96%
    07:00 +13°C° 0 mm 4 mps 762 mmHg 94%
    08:00 +14°C° 0 mm 4 mps 762 mmHg 92%
    09:00 +14°C° 0 mm 4 mps 762 mmHg 90%
    10:00 +15°C° 0 mm 4 mps 762 mmHg 86%
    11:00 +17°C° 0 mm 4 mps 762 mmHg 82%
    12:00 +18°C° 0 mm 4 mps 762 mmHg 78%
    13:00 +18°C° 0 mm 3 mps 762 mmHg 78%
    14:00 +18°C° 0 mm 3 mps 762 mmHg 78%
    15:00 +18°C° 0 mm 3 mps 762 mmHg 78%
    16:00 +17°C° 0 mm 2 mps 763 mmHg 82%
    17:00 +15°C° 0 mm 2 mps 763 mmHg 87%
    18:00 +14°C° 0 mm 2 mps 763 mmHg 92%
    19:00 +14°C° 0 mm 2 mps 763 mmHg 93%
    20:00 +13°C° 0 mm 2 mps 763 mmHg 93%
    21:00 +13°C° 0 mm 2 mps 763 mmHg 93%
    22:00 +13°C° 0 mm 2 mps 763 mmHg 93%
    23:00 +13°C° 0 mm 1 mps 763 mmHg 93%

    26 October, Thursday

    Time Temperature Precipitation Wind Pressure Humidity
    00:00 +12°C° 0 mm 1 mps 763 mmHg 93%
    01:00 +12°C° 0 mm 1 mps 763 mmHg 93%
    02:00 +12°C° 0 mm 1 mps 763 mmHg 93%
    03:00 +12°C° 0 mm 1 mps 763 mmHg 93%
    04:00 +13°C° 0 mm 1 mps 763 mmHg 94%
    05:00 +13°C° 0 mm 1 mps 763 mmHg 94%
    06:00 +13°C° 0 mm 1 mps 763 mmHg 94%
    07:00 +14°C° 0 mm 1 mps 763 mmHg 92%
    08:00 +15°C° 0 mm 1 mps 763 mmHg 91%
    09:00 +16°C° 0 mm 2 mps 764 mmHg 89%
    10:00 +17°C° 0 mm 2 mps 764 mmHg 85%
    11:00 +18°C° 0 mm 2 mps 764 mmHg 80%
    12:00 +20°C° 0 mm 2 mps 764 mmHg 76%
    13:00 +20°C° 0 mm 2 mps 764 mmHg 77%
    14:00 +20°C° 0 mm 2 mps 763 mmHg 77%
    15:00 +20°C° 0 mm 2 mps 763 mmHg 78%
    16:00 +18°C° 0 mm 2 mps 763 mmHg 82%
    17:00 +17°C° 0 mm 2 mps 764 mmHg 87%
    18:00 +16°C° 0 mm 2 mps 764 mmHg 92%
    19:00 +15°C° 0 mm 2 mps 764 mmHg 92%
    20:00 +15°C° 0 mm 2 mps 764 mmHg 93%
    21:00 +14°C° 0 mm 2 mps 764 mmHg 93%
    22:00 +14°C° 0 mm 2 mps 765 mmHg 93%
    23:00 +14°C° 0 mm 2 mps 765 mmHg 93%
    Show more